Savoy, IL

2:53 AM CST on February 24, 2017 (GMT -0600)
Univ Of Illinois-Willard

Weather History for KCMI - October, 2012

Change the Weather History Date:

Friday, October 19, 2012

  Actual Average Record
Temperature  
Mean Temperature 49 °F 53 °F  
Max Temperature 51 °F 64 °F 77 °F (2003)
Min Temperature 46 °F 41 °F 30 °F (1996)
Degree Days  
Heating Degree Days 16 13  
Month to date heating degree days 235 191  
Since 1 July heating degree days 324 283  
Cooling Degree Days 0 0  
Month to date cooling degree days 2 14  
Year to date cooling degree days 1286 939  
Moisture  
Dew Point 45 °F    
Average Humidity 90    
Maximum Humidity 93    
Minimum Humidity 86    
Precipitation  
Precipitation 0.60 in 0.11 in 0.95 in (2011)
Month to date precipitation 2.90 1.94  
Year to date precipitation 24.07 32.50  
Sea Level Pressure  
Sea Level Pressure 29.58 in    
Wind  
Wind Speed 14 mph (WSW)    
Max Wind Speed 23 mph    
Max Gust Speed 28 mph    
Visibility 7 miles    
Events Rain    
T = Trace of Precipitation, MM = Missing Value Source: NWS Daily Summary

Daily Weather History Graph

Daily Weather History Graph

Search for Another Location

Airport or City:

Trip Planner

Search our weather history database for the weather conditions in past years. The results will help you decide how hot, cold, wet, or windy it might be!

Date:

Astronomy

Oct. 19, 2012 Rise Set
Actual Time 7:08 AM CDT 6:06 PM CDT
Civil Twilight 6:40 AM CDT 6:34 PM CDT
Nautical Twilight 6:09 AM CDT 7:05 PM CDT
Astronomical Twilight 5:37 AM CDT 7:37 PM CDT
Moon 11:51 AM CDT (10/19) 9:45 PM CDT (10/19)
Length of Visible Light 11h 53m
Length of Day
10h 58m
Waxing Crescent, 24% of the Moon is Illuminated
Oct 19
Waxing Crescent
Oct 21
First Quarter
Oct 29
Full
Nov 6
Last Quarter
Nov 13
New

Hourly Weather History & Observations

Time (CDT) Temp. Windchill Dew Point Humidity Pressure Visibility Wind Dir Wind Speed Gust Speed Precip Events Conditions
12:53 AM 46.0 °F 40.6 °F 42.1 °F 86% 29.52 in 10.0 mi SSW 11.5 mph - 0.00 in Rain Light Rain
1:53 AM 46.0 °F 39.0 °F 42.1 °F 86% 29.50 in 10.0 mi SSW 17.3 mph - 0.02 in Rain Light Rain
2:25 AM 46.4 °F 39.2 °F 42.8 °F 87% 29.49 in 10.0 mi SSW 18.4 mph 23.0 mph 0.01 in Rain Light Rain
2:53 AM 46.0 °F 38.8 °F 43.0 °F 89% 29.48 in 10.0 mi SSW 18.4 mph - 0.01 in Rain Light Rain
3:34 AM 46.4 °F 39.8 °F 42.8 °F 87% 29.48 in 7.0 mi SSW 16.1 mph - 0.01 in Rain Light Rain
3:41 AM 46.4 °F 39.2 °F 42.8 °F 87% 29.48 in 6.0 mi SSW 18.4 mph - 0.01 in Rain Light Rain
3:53 AM 46.0 °F 39.0 °F 44.1 °F 93% 29.48 in 5.0 mi SSW 17.3 mph - 0.02 in Rain Light Rain
4:53 AM 46.0 °F 39.0 °F 45.0 °F 96% 29.48 in 4.0 mi SW 17.3 mph - 0.01 in   Overcast
5:53 AM 46.0 °F 39.3 °F 45.0 °F 96% 29.49 in 2.5 mi SW 16.1 mph - N/A   Overcast
6:11 AM 46.4 °F 39.8 °F 44.6 °F 93% 29.49 in 3.0 mi SW 16.1 mph - 0.00 in   Overcast
6:53 AM 46.0 °F 38.8 °F 45.0 °F 96% 29.50 in 6.0 mi SW 18.4 mph 26.5 mph 0.00 in   Overcast
7:53 AM 46.0 °F 39.3 °F 44.1 °F 93% 29.51 in 8.0 mi SW 16.1 mph - 0.02 in Rain Light Rain
8:04 AM 46.4 °F 40.1 °F 44.6 °F 93% 29.51 in 10.0 mi SW 15.0 mph - 0.00 in Rain Light Rain
8:34 AM 46.4 °F 40.1 °F 44.6 °F 93% 29.51 in 2.0 mi WSW 15.0 mph 21.9 mph 0.00 in Rain Light Rain
8:53 AM 46.0 °F 40.2 °F 45.0 °F 96% 29.52 in 2.0 mi SW 12.7 mph - 0.01 in Rain Light Rain
9:26 AM 46.4 °F 39.5 °F 44.6 °F 93% 29.52 in 4.0 mi WSW 17.3 mph - 0.01 in   Overcast
9:28 AM 46.4 °F 39.8 °F 44.6 °F 93% 29.52 in 4.0 mi WSW 16.1 mph - 0.01 in   Overcast
9:53 AM 46.9 °F - 44.1 °F 90% 29.53 in 8.0 mi West 17.3 mph - 0.01 in Rain Light Rain
10:22 AM 46.4 °F 39.5 °F 44.6 °F 93% 29.53 in 10.0 mi West 17.3 mph - 0.00 in   Overcast
10:37 AM 48.2 °F - 44.6 °F 87% 29.54 in 10.0 mi West 15.0 mph - 0.00 in   Overcast
10:44 AM 48.2 °F - 44.6 °F 87% 29.54 in 10.0 mi WSW 17.3 mph - 0.00 in   Overcast
10:53 AM 48.0 °F - 45.0 °F 89% 29.55 in 10.0 mi WSW 18.4 mph - 0.00 in   Overcast
11:45 AM 48.2 °F - 44.6 °F 87% 29.55 in 3.0 mi West 17.3 mph - 0.00 in Rain Light Rain
11:53 AM 48.0 °F - 45.0 °F 89% 29.56 in 3.0 mi West 16.1 mph - 0.00 in   Overcast
12:34 PM 48.2 °F - 46.4 °F 93% 29.56 in 1.8 mi West 16.1 mph - 0.01 in Rain Light Rain
12:39 PM 46.4 °F 39.5 °F 46.4 °F 100% 29.56 in 2.0 mi West 17.3 mph - 0.01 in Rain Light Rain
12:49 PM 48.2 °F - 46.4 °F 93% 29.56 in 10.0 mi West 18.4 mph 24.2 mph 0.01 in   Overcast
12:53 PM 48.9 °F - 46.0 °F 90% 29.56 in 10.0 mi West 17.3 mph 24.2 mph 0.01 in   Overcast
1:00 PM 48.2 °F - 46.4 °F 93% 29.56 in 10.0 mi West 17.3 mph - N/A   Overcast
1:07 PM 48.2 °F - 46.4 °F 93% 29.56 in 10.0 mi West 17.3 mph - N/A   Overcast
1:23 PM 48.2 °F - 44.6 °F 87% 29.56 in 10.0 mi West 16.1 mph - N/A   Overcast
1:53 PM 48.9 °F - 45.0 °F 86% 29.58 in 10.0 mi West 16.1 mph - 0.00 in   Overcast
2:53 PM 48.0 °F - 44.1 °F 86% 29.60 in 10.0 mi West 15.0 mph - 0.00 in   Overcast
3:02 PM 48.2 °F - 44.6 °F 87% 29.59 in 10.0 mi West 17.3 mph - N/A   Overcast
3:38 PM 48.2 °F - 44.6 °F 87% 29.61 in 7.0 mi West 20.7 mph 25.3 mph 0.01 in Rain Light Rain
3:53 PM 48.9 °F - 45.0 °F 86% 29.62 in 10.0 mi West 17.3 mph - 0.01 in Rain Light Rain
4:12 PM 48.2 °F - 44.6 °F 87% 29.61 in 10.0 mi West 16.1 mph - 0.00 in   Overcast
4:53 PM 50.0 °F - 45.0 °F 83% 29.63 in 9.0 mi West 13.8 mph - 0.00 in Rain Light Rain
5:53 PM 48.9 °F - 45.0 °F 86% 29.65 in 10.0 mi West 9.2 mph - 0.00 in   Overcast
6:53 PM 48.0 °F - 44.1 °F 86% 29.68 in 10.0 mi WSW 9.2 mph - N/A   Overcast
7:53 PM 48.0 °F - 44.1 °F 86% 29.69 in 10.0 mi WSW 10.4 mph - N/A   Overcast
9:53 PM 48.0 °F - 46.0 °F 93% 29.71 in 5.0 mi West 11.5 mph - 0.02 in Rain Rain
10:26 PM 48.2 °F - 46.4 °F 93% 29.70 in 2.5 mi West 10.4 mph - 0.12 in Rain Heavy Rain
10:32 PM 48.2 °F - 46.4 °F 93% 29.70 in 3.0 mi WNW 8.1 mph - 0.13 in Rain Rain
10:45 PM 48.2 °F - 46.4 °F 93% 29.70 in 2.5 mi WNW 8.1 mph - 0.20 in Rain Heavy Rain
10:53 PM 48.0 °F - 46.0 °F 93% 29.71 in 2.5 mi WNW 8.1 mph - 0.24 in Rain Heavy Rain
11:09 PM 48.2 °F - 46.4 °F 93% 29.70 in 2.5 mi WNW 9.2 mph - 0.15 in Rain Heavy Rain
11:15 PM 48.2 °F - 46.4 °F 93% 29.70 in 3.0 mi WNW 10.4 mph - 0.17 in Rain Rain
11:31 PM 48.2 °F - 46.4 °F 93% 29.70 in 10.0 mi West 6.9 mph - 0.18 in Rain Light Rain
11:39 PM 48.2 °F - 46.4 °F 93% 29.70 in 10.0 mi West 8.1 mph - 0.18 in   Overcast
11:53 PM 48.0 °F - 46.0 °F 93% 29.71 in 6.0 mi West 13.8 mph - 0.18 in Rain Light Rain